LiveATC.Net - Listen to live air traffic control over the Internet!


ICAO: KOGB  IATA: OGB   Airport: Orangeburg Municipal Airport
City: Orangeburg   State/Province: South Carolina
Country: United States   Continent: North America
KOGB METAR Weather: KOGB 250253Z AUTO 02007KT 10SM OVC009 22/19 A3009 RMK AO2 SLP186 T02220194 51017
KOGB Flight Activity (FlightAware)
KOGB Webcam:  (Airport Webcams) 
KOGB Airport Info   (iFlightPlanner)
KOGB VFR Sectional Chart   (iFlightPlanner) 
KOGB IFR Low Chart   (iFlightPlanner) 

KOGB CTAF
Feed Status: UP   Listeners: 0
Listen in your browser - HTML5 player (in browser, HTML5)
Click here to listen with your own player (launches your MP3 player)
KOGB CTAF Audio Archives
FacilityFrequency
Orangeburg CTAF122.700

NOTICE

Unauthorized use prohibited. See LiveATC.net Terms of Service


Airport/ARTCC Code
Frequency Search
(e.g., 124.400, 128.75)
Site-wide search
 


Browse LiveATC Feeds
Top 50 LiveATC Feeds
LiveATC Feed Map
Bad Weather Areas

LiveATC FAQ
Offer LiveATC feed
Contact LiveATC.net
Press Inquiries

LiveATC on iPhone
LiveATC on Android

Windows Phone
Windows 8/10

LiveATC Mobile
(Mobile browser)

ATC Audio Archives
Interesting Recordings

LiveATC Forums


Home Page
About LiveATC.net
Make a Donation
Terms of Use
Privacy Policy

Canadian Air Freqs

AIRMETs/SIGMETs

FAA Airport Status
Nat'l Airspace Status
Arrival Demand Charts


Server Software By:
Icecast.org
Liquidsoap